Погода Илирней

Погода Илирней : погода сейчас, прогноз погоды и архив. Всё, что Вы хотите узнать о погоде Илирней!

Хотите узнать прогноз погоды Илирней? Тогда Вам сюда: Погода Илирней

Поиск расширенной информации на нашем сайте:

Полезная информация: купить виагру Москва

Другие новости

Новости СМИ2

Главная страница сайта

Новости сайта

02.10.2013

Напоминаем, что на нашем новом сайте вы можете получить высокодетализированные прогнозы погоды по пунктам России, СНГ и мира (включающие важные для авиации метеовеличины, такие как направление и скорость ветра, видимость, явления погоды, количество и форма облачности, нижняя и верхняя граница облачности), а также ознакомиться с разнообразными материалами по авиационной метеорологии и подборкой полезных ссылок на эту тему.

Сайт Метеоцентр.Азия посвящён разработке технологий оптимизации авиаметеорологического обслуживания, включая проектирование и перспективное создание нескольких автоматизированных авиаметеорологических систем:
- система выпуска высокодетальных прогностических карт явлений погоды для нижнего воздушного пространства по России и ближнему зарубежью;
- система верификации прогнозов TAF (выпускаемых синоптиками официальных АМСГ РФ и ближнего зарубежья) и AUTOTAF (выпускаемых сайтом Метеоцентр.Азия) - выявление ошибок, онлайн-сопоставление с фактической погодой METAR, автоматическое внесение коррективов в прогнозы при резком отклонении фактической погоды от прогноза, подсчёт оправдываемости прогнозов по элементам и в целом;
- система обработки, анализа и отображения авиаметеорологической информации для применения провайдерами метеорологической информации.

Рекомендуем: Что такое страховка зеленая карта.

Погода Илирней - сегодня

Время (UTC), дата Ветер
(°,м/с) 
Видим.   Явления Облачность Т
(°С)
Тd
(°С)
f(%) Тe
(°С)
Pmin
(гПа)
dP
(гПа)
Po
(мм)
O2
(г/м3)
Тmin Tmax R s Состояние
почвы
03 25.05.17 140 (ЮВ) 2{07}  20000 м    6/0 средняя 
[Ac trans]
+3.3 -8 43 +3  1005  -1.4  722  288           
06 25.05.17 080 (В) 3{07}  20000 м    ясно 
+3.1 -7.8 45 +2  1004.6  -0.5  721  288           
09 25.05.17 080 (В) 4{07}  20000 м    3/0 средняя 
[Ac trans]
+1 -7.9 51 -1  1005.3  0.4  722  290    +3.6       
12 25.05.17 070 (В) 5{09}  20000 м    3/0 средняя 
[Ac trans]
-3.1 -6.6 77 -7  1006.3  0.3  722  295           
15 25.05.17 080 (В) 4{10}  20000 м    3/0 средняя 
[Ac trans]
-4 -7 80 -7  1006.3  -0.1  722  296           
18 25.05.17 080 (В) 6{10}  20000 м    3/0 средняя 
[Ac trans]
-2.8 -7.3 71 -7  1005.5  -0.5  721  294           
21 25.05.17 090 (В) 7{10}  20000 м    10/0 средняя 
[Ac und]
-2 -6.2 73 -6  1005.8  0.3  722  293  -4.3        влажная 
00 26.05.17 070 (В) 5{10}  20000 м    10/0 средняя 
[Ac und]
+1.6 -5.4 60 -1  1004.6  -0.6  721  289           
03 26.05.17 090 (В) 6{09}  20000 м    10/0 средняя 
[Ac und]
+1.8 -5.5 58 -1  1004  0.4  721  289           
06 26.05.17 110 (В) 4{10}  20000 м    10/0 средняя 
[Ac und]
+1.7 -7.9 49 1005.2  0.2  722  290           
09 26.05.17 090 (В) 4{10}  20000 м    10/0 средняя 
[Ac und]
+1.3 -3.6 70 -1  1005.7  0.5  722  290    +1.8       
12 26.05.17 080 (В) 2{07}  20000 м    10/0 средняя 
[Ac und]
-0.4 -3.1 82 -1  1006.5  0.4  722  292           
15 26.05.17 090 (В) 2{07}  20000 м    10/0 средняя 
[Ac und]
-0.4 -4.5 74 -1  1006.1  -0.3  722  292           
03 27.05.17 070 (В) 6{09}  20000 м    8/0 средняя 
[Ac trans]
+5.9 -2.7 54 +4  1003.6  -0.9  721  285           
06 27.05.17 090 (В) 2{08}  20000 м    8/0 средняя 
[Ac trans]
+6.6 -3.2 50 +6  1003.1  -0.3  721  284           
12 27.05.17 080 (В) 2{06}  20000 м    6/0 средняя 
[Ac trans]
+1.4 -2.7 74 +1  1004.5  0.4  721  289           
15 27.05.17 тихо () {06}  20000 м    8/0 средняя 
[Ac trans]
+1.9 -1.8 76 +2  1004.6  0.1  721  289           
18 27.05.17 090 (В) 2{04}  20000 м    6/0 средняя 
[Ac trans]
+3.5 -3.2 61 +3  1004.5  0.2  721  287           
03 28.05.17 070 (В) 2{09}  20000 м    10/4 600 м средняя 
[Sc|Ac As]
+6.3 -1.8 56 +6  1004.9  0.4  722  284           
06 28.05.17 150 (ЮВ) 2{07}  20000 м    10/3 600 м средняя 
[Sc|Ac trans]
+5.5 -2.2 58 +5  1005.8  0.7  722  286           
12 28.05.17 тихо () {07}  20000 м    10/0 средняя 
[Ac und]
+1.5 -1 83 +2  1008.6  724  290           
15 28.05.17 080 (В) 2{05}  20000 м    10/0 средняя 
[Ac und]
+1.1 -0.9 86 1009  0.4  724  291           
18 28.05.17 110 (В) 3{07}  20000 м    10/0 средняя 
[Ac und]
+2.1 -1.9 75 +1  1010.2  0.6  725  290           
03 29.05.17 080 (В) 5{08}  20000 м    8/3 600 м средняя 
[Sc|Ac trans]
+7.5 -2.2 50 +6  1010.4  0.7  726  285           
06 29.05.17 100 (В) 2{07}  20000 м    8/0 средняя 
[Ac trans]
+6.7 -2 54 +7  1011.6  727  286           
Время (UTC), дата Ветер
(°,м/с) 
Видим.   Явления Облачность Т
(°С)
Тd
(°С)
f(%) Тe
(°С)
Pmin
(гПа)
dP
(гПа)
Po
(мм)
O2
(г/м3)
Тmin Tmax R s Состояние
почвы

Для получения пояснительной информации подведите курсор к названию столбца.

ПОГОДА Илирней - архив

Всё, что Вы хотите узнать о погоде Илирней - удобно и подробно!

Выберите нужную дату (начиная с 1 января 2015* года) и нажмите кнопку "Найти".
Будут отображены архивные сводки погоды по пункту Илирней, начиная с указанной даты.


Отображать данные в формате CSV (для использования в таблицах Excel)


Внимание! Наш архив погоды предназначен исключительно для личного некоммерческого использования в познавательных целях. Если Вам необходимы официальные справки о состоянии погоды (для производственных, юридических, коммерческих и т.п. целей), обращайтесь в органы Росгидромета.

*Примечание: данная дата относится к архиву по метеостанциям СССР (Россия, СНГ, Балтия).
Архив по метеостанциям Зарубежной Европы и Азии (кроме Китая) хранится 10 дней, по другим регионам земного шара (Китай, Африка, Америка, Австралия, Океания) - 1 день.

Илирней - район местоположения метеостанции


Название, широта, долгота, высота метеостанции:
Илирней 67.2°ш. 168°д. 353 м над ур. моря [Российская Федерация]

Дополнительная информация

В oтличие oт бoльшинства пoгoдных сайтoв мы публикуем пoдрoбную метеoинфoрмацию в детальнoм прoфессиoнальнoм фoрмате.

Характеристики температуры и влажнoсти вoздуха измеряются на высoте 2 м в тени вдали oт зданий и деревьев.
Скoрoсть ветра измеряется на высoте 10 м (на урoвне рoста челoвека скoрoсть ветра ниже в 1.5-2 раза). Если метеoстанция нахoдится в гoрoде или в лесу, тo скoрoсть ветра занижена на 2-4 м/с пo сравнению с oткрытым местoм. Скoрoсть ветра над акватoриями крупных рек и oзёр, а также на вершинах хoлмoв на 2-5 м/с выше, чем в oбычных услoвиях.
Атмoсфернoе давление в разных тoчках местнoсти мoжет значительнo oтличаться oт давления на метеoстанции, в зависимoсти oт услoвий рельефа (при пoдъёме на 10 м давление пoнижается примернo на 1 мм рт.ст.).